Location: Losili
(4.4086°N, 32.7049°E)
Time: 01:02:06
(UTC+00:00)

OAO 1 - Pass Details

Date: 18 September 2019
Orbit: 773 x 784 km, 35.0° (Epoch: 22 October)

Event Time Altitude Azimuth Distance (km) Brightness Sun altitude
Rises 16:25:28 0° 308° (NW) 3,237 8.7 -10.3°
Reaches altitude 10° 16:27:56 10° 308° (NW) 2,312 7.9 -11.0°
Maximum altitude 16:33:25 86° 37° (NE) 780 4.5 -12.3°
Enters shadow 16:38:15 14° 126° (SE) 2,072 6.2 -13.5°
